Regional Weather Roundup
Issued by NWS Charleston, SC

Current Version | Previous Version | Graphics & Text | Print | Product List | Glossary On
Versions: 1 2 3 4 5 6 7 8 9 10 11 12 13 14 15 16 17 18 19 20 21 22 23 24 25 26 27 28 29 30 31 32 33 34 35 36 37 38 39 40 41 42 43 44 45 46 47 48 49 50
000
ASUS42 KCHS 191725
RWRCHS

REGIONAL WEATHER ROUNDUP
NATIONAL WEATHER SERVICE CHARLESTON SC
100 PM EDT SUN OCT 19 2014

NOTE: "FAIR" INDICATES FEW OR NO CLOUDS BELOW 12,000 FEET WITH NO
SIGNIFICANT WEATHER AND/OR OBSTRUCTIONS TO VISIBILITY.

NOT ALL STATIONS ARE QUALITY CONTROLLED BY THE NATIONAL
WEATHER SERVICE. USE DATA WITH CAUTION...ESPECIALLY
DEWPOINT OBSERVATIONS.

SCZ027-030-031-034>040-042>050-191800-
...SOUTH CAROLINA...

CITY           SKY/WX    TMP DP  RH WIND       PRES   REMARKS
N CHARLESTON   MOSUNNY   70  45  40 N12       30.10F
WATERFRONT PRK   N/A     66 N/A N/A N9          N/A
FORT JOHNSON   NOT AVBL
JOHNS ISLAND   SUNNY     70  48  46 NE9       30.10F
PINOPOLIS        N/A     64  46  52 VRB7      30.05S
MONCKS CORNER  FAIR      68  52  56 N8        30.10F
SUMMERVILLE    FAIR      68  46  45 NW7       30.11F
BEAUFORT MCAS  SUNNY     69  46  43 NE9       30.11F
BEAUFORT ARPT  FAIR      68  48  49 N5        30.10F
HILTON HEAD IS SUNNY     68  48  49 N10       30.12
GEORGETOWN     NOT AVBL
WALTERBORO     SUNNY     68  37  32 NW6       30.11F
ORANGEBURG     SUNNY     67  43  41 NE10      30.12F
BARNWELL       FAIR      70  45  40 N5        30.13F
AIKEN          FAIR      68  48  49 NW5       30.15F
MANNING        FAIR      68  46  45 N5        30.11F
KINGSTREE      NOT AVBL
COLUMBIA       MOSUNNY   68  43  40 NE6       30.12F
SUMTER         SUNNY     66  45  46 VRB5      30.11F
FLORENCE       SUNNY     66  43  43 N9        30.11F
MYRTLE BEACH   SUNNY     66  43  42 N17       30.09F
N MYRTLE BEACH SUNNY     66  43  43 N9        30.09S

$$

GAZ063-065-086>088-099>101-113>116-118-119-134-136>141-150-191800-
...GEORGIA...

CITY           SKY/WX    TMP DP  RH WIND       PRES   REMARKS
SAVANNAH ARPT  PTSUNNY   71  46  40 NE7       30.12S
HUNTER AAF     SUNNY     69  47  46 NE7       30.09F
FORT STEWART   SUNNY     69  47  46 NE9       30.10F
STATESBORO     NOT AVBL
SYLVANIA       SUNNY     74  51  44 N3        30.12F
CLAXTON        FAIR      70  46  43 NE7       30.12F
THOMSON        SUNNY     68  53  58 CALM      30.18F
AUGUSTA-BUSH   SUNNY     69  43  38 VRB6      30.13F
AUGUSTA-DANIEL SUNNY     67  44  43 CALM      30.14F
SWAINSBORO     FAIR      72  46  40 MISG      30.12F
VIDALIA        SUNNY     70  48  46 NE7       30.12F
ALMA           SUNNY     70  48  45 VRB7      30.11F
WAYCROSS       SUNNY     74  52  46 SE8       30.10F
JESUP          FAIR      73  54  49 SE3       30.11F
BRUNSWICK      MOSUNNY   72  50  46 E9        30.11F
SAINT SIMONS   MOSUNNY   68  53  58 NE15      30.11S

$$

SCZ027-028-034-036>038-045-046-048>050-GAZ119-141-191800-
...LAKE AND SUPPLEMENTAL COASTAL OBSERVATIONS...

STATION/POSITION TIME  TEMP    WIND        PRES    WAVE   SWELL
                       AIR SEA DIR/SP/G            HT/PER HT/PER/DIR
                 (UTC) (F)     (DEG/KT/KT) (MB)    (FT/S) (FT/S/D)
UPR LAKE MARION  NOT AVBL
WINYAH BAY       1700   65     340/  7     1019.0S
LAKE MURRAY      1600   64     360/  4/  6 1020.0F
ACE BASIN NERRS  1700   68     360/  3     1020.0S
FORT PULASKI     1700   65      10/ 10/ 13 1019.7F
SAPELO ISLAND    NOT AVBL

$$

ANZ835-935-AMZ111-154-330-350-352-354-374-450-454-472-191800-
...C-MAN AND BUOY OBSERVATIONS...

STATION/POSITION TIME  TEMP    WIND        PRES    WAVE   SWELL
                       AIR SEA DIR/SP/G            HT/PER HT/PER/DIR
                 (UTC) (F)     (DEG/KT/KT) (MB)    (FT/S) (FT/S/D)
FOLLY BEACH CMAN 1700   65      20/  7/  9 1019.6F
BUOY 41004       1700   65 79   20/ 16/ 19 1018.1F   5/ 6   2/13
BUOY 41008       1700   67 76   40/ 16/ 19 1019.2R   5/ 6   2/110/10
5E ST. MARYS GA  1700      78                N/A     5/ 6   2/100/12
FRYING PAN BUOY  1700   62 76   10/ 16/ 17 1018.8R   5/ 5   2/130/11
BUOY 41025       NOT AVBL
CAPE LOOKOUT NC  1700   61     340/ 14/ 18 1017.4F
BUOY 41002       1553   74 80  330/ 19/ 23 1015.2R   6/ 6   3/ 50/11
BUOY 41010       1700   79 81  300/  6/ 10 1016.2F   4/13   3/ 70/13
BUOY 41012       NOT AVBL
ST AUGUSTINE FL  1700   74      30/ 15/ 17 1018.4F
CAPERS NEARSHORE 1600   64      40/ 10/ 12   N/A
FRIPP NEARSHORE  NOT AVBL


$$



USA.gov is the U.S. government's official web portal to all federal, state and local government web resources and services.